{"data":{"norad_id":61526,"intl_designator":"2024-183T","name":"STARLINK-32293","alt_names":[],"object_type":"PAYLOAD","status":"ACTIVE","operator":null,"country":"US","launch_date":"2024-10-15","launch_site_code":"AFETR","launch_vehicle":null,"mission":null,"orbit_class":"UNKNOWN","rcs_meters":null,"size_class":null,"mass_kg":null,"dimensions":null,"purposes":["comms"],"wikipedia_slug":null,"has_3d_model":false,"image_url":null,"decayed_at":null,"tle_current":{"epoch":"2026-05-25T03:32:00.849120Z","epoch_age_seconds":66334,"freshness":"FRESH","line1":"1 61526U 24183T   26145.14723205  .00001047  00000+0  47467-4 0  9993","line2":"2 61526  53.1592 147.6377 0001210  78.6951 281.4185 15.30195623 91354","mean_motion":15.30195623,"eccentricity":0.000121,"inclination_deg":53.1592,"raan_deg":147.6377,"arg_perigee_deg":78.6951,"mean_anomaly_deg":281.4185,"bstar":4.7467e-5,"rev_number":9135,"period_min":94.105614887123,"perigee_km":474.39888120177,"apogee_km":476.05739556526,"semimajor_km":6853.3651383835,"source":"CELESTRAK","updated_at":"2026-05-25T13:38:19.395644Z"}}}